sat.trackr.live / text

‹ back to catalog

POPACS 3

NORAD 39270 · 2013-055F

PAYLOAD ACTIVE UNKNOWN

§ Identity

Operator
Country
US
Launch date
2013-09-29
Launch site
AFWTR
Launch vehicle
Mass (kg)
RCS (m²)
0.02

Purposes: tech_demo

External: N2YO · Heavens-Above · Gunter

§ Orbital elements

Epoch: 2026-09-19T23:10:10.058880Z

Period
98.80 min
Inclination
80.9996°
Eccentricity
0.0546226
Mean motion
14.57504325 rev/d
Perigee alt
314.5 km
Apogee alt
1,087.9 km
Semi-major
7,079.4 km
B*
1.7556e-4
RAAN
126.2880°
Arg perigee
140.7045°
Mean anomaly
223.5161°
Rev number
65,235

§ Raw data

POPACS 31 39270U 13055F   26262.96539420  .00007527  00000+0  17556-3 0  99982 39270  80.9996 126.2880 0546226 140.7045 223.5161 14.57504325652354

JSON: /api/v1/satellites/39270 · /tle

For live sub-satellite position, see the globe view (requires WebGL).

§ Visibility from observer

Set your observer location to see the next 7 days of passes ≥ 10°. The values pass through the URL so the page stays shareable.

No JS? Fill the form by hand. The geolocation button needs JavaScript.